Location: Damada
(14.7329°N, 3.1761°W)
Time: 05:43:20
(UTC+00:00)

Sakura Rocket - Pass Details

Date: 18 February 2020
Orbit: 476 x 1743 km, 28.7° (Epoch: 09 April)

Event Time Altitude Azimuth Distance (km) Brightness Sun altitude
Rises 20:05:16 0° 287° (WNW) 3,658 8.1 -26.5°
Reaches altitude 10° 20:08:27 10° 280° (W) 2,483 7.0 -27.3°
Maximum altitude 20:13:41 37° 214° (SW) 1,057 4.4 -28.5°
Enters shadow 20:14:06 36° 202° (SSW) 1,053 4.3 -28.6°
